Location: ????????
(55.3939°N, 37.4780°E)
Time: 10:47:04
(UTC+00:00)

COSMOS 2428 - Pass Details

Date: 14 April 2026
Orbit: 844 x 855 km, 70.9° (Epoch: 19 May)

Event Time Altitude Azimuth Distance (km) Brightness Sun altitude
Rises 17:11:56 0° 181° (S) 3,413 5.6 -5.9°
Reaches altitude 10° 17:14:32 10° 173° (S) 2,482 4.8 -6.2°
Maximum altitude 17:19:40 36° 109° (ESE) 1,341 3.3 -6.9°
Drops below altitude 10° 17:24:49 10° 45° (NE) 2,498 5.0 -7.5°
Sets 17:27:27 0° 37° (NE) 3,438 5.8 -7.9°
